Home   Weather   Kingston   Past weeks
Flag for Canada

Past Weather in Kingston, Ontario, Canada — Yesterday and Last 2 Weeks

Now
63 °F

Mostly cloudy.


Feels Like: 63 °F
Forecast: 64 / 45 °F
Wind: 13 mph from East

Location: Kingston

Current Time: May 22, 2019 at 3:10:06 pm

Latest Report: May 22, 2019 at 2:00 pm


Visibility: 15 mi

Pressure: 30.24 "Hg

Humidity: 39%

Dew Point: 37 °F

Location of KingstonLocation

Past Weather in Kingston — Graph

°F

Kingston Temperature Yesterday

Maximum temperature yesterday: 66 °F (at 4:00 pm)
Minimum temperature yesterday: 45 °F (at 6:00 am)
Average temperature yesterday: 57 °F

High & Low Weather Summary for the Past Weeks

 TemperatureHumidityPressure
High73 °F (May 19, 5:00 pm)100% (May 9, 9:00 pm)30.43 "Hg (May 9, 9:00 pm)
Low39 °F (May 8, 6:00 am)31% (May 8, 5:00 pm)29.65 "Hg (May 17, 6:00 am)
Average52 °F75%29.96 "Hg
* Reported May 7 1:00 pm — May 22 1:00 pm, Kingston. Weather by CustomWeather, © 2019

Note: Actual official high and low records may vary slightly from our data, if they occured in-between our weather recording intervals... More about our weather records

Advertising

Kingston Weather History for the Previous 24 Hours

Scroll right to see more
 ConditionsComfort  
Time TempWeatherWind HumidityBarometerVisibility
1:00 pm
Wed, May 22
63 °FMostly cloudy.9 mph45%30.27 "Hg15 mi
12:00 pm61 °FOvercast.12 mph45%30.29 "Hg15 mi
11:00 am59 °FOvercast.15 mph51%30.30 "Hg15 mi
10:00 am59 °FPartly sunny.12 mph55%30.30 "Hg15 mi
9:00 am59 °FPartly sunny.8 mph55%30.31 "Hg15 mi
8:00 am55 °FPartly sunny.12 mph51%30.28 "Hg15 mi
7:00 am48 °FScattered clouds.8 mph82%30.27 "Hg15 mi
6:00 am45 °FPartly sunny.7 mph81%30.24 "Hg15 mi
11:00 pm
Tue, May 21
52 °FPassing clouds.5 mph58%30.14 "Hg15 mi
10:00 pm54 °FPassing clouds.3 mph54%30.13 "Hg15 mi
9:00 pm59 °FPassing clouds.3 mph42%30.12 "Hg15 mi
8:00 pm61 °FPassing clouds.10 mph36%30.10 "Hg15 mi
7:00 pm64 °FScattered clouds.9 mph32%30.08 "Hg15 mi
6:00 pm64 °FBroken clouds.13 mph34%30.07 "Hg15 mi
5:00 pm64 °FBroken clouds.13 mph34%30.06 "Hg15 mi
4:00 pm66 °FBroken clouds.16 mph35%30.04 "Hg15 mi
3:00 pm63 °FPartly sunny.14 mph37%30.03 "Hg15 mi
Weather by CustomWeather, © 2019

See weather overview